Change the Weather History Date:

Friday, May 16, 2014

  Actual Average Record
Temperature  
Mean Temperature 61 °F 71 °F  
Max Temperature 74 °F 83 °F 94 °F (1962)
Min Temperature 47 °F 59 °F 45 °F (1973)
Degree Days  
Heating Degree Days 4 0  
Month to date heating degree days 21 16  
Since 1 July heating degree days 2865 2550  
Cooling Degree Days 0 6  
Month to date cooling degree days 71 77  
Year to date cooling degree days 139 160  
Growing Degree Days 10 (Base 50)    
Moisture  
Dew Point 48 °F    
Average Humidity 68    
Maximum Humidity 100    
Minimum Humidity 35    
Precipitation  
Precipitation T in 0.15 in 2.22 in (2007)
Month to date precipitation 1.47 2.30  
Year to date precipitation 30.59 23.23  
Sea Level Pressure  
Sea Level Pressure 30.14 in    
Wind  
Wind Speed 4 mph (WSW)    
Max Wind Speed 12 mph    
Max Gust Speed 20 mph    
Visibility 10 miles    
Events Rain    
T = Trace of Precipitation, MM = Missing Value Source: NWS Daily Summary

Daily Weather History Graph

Daily Weather History Graph

Search for Another Location

Airport or City:

Trip Planner

Search our weather history database for the weather conditions in past years. The results will help you decide how hot, cold, wet, or windy it might be!

Date:

Astronomy

May. 16, 2014 Rise Set
Actual Time 5:56 AM CDT 7:46 PM CDT
Civil Twilight 5:29 AM CDT 8:13 PM CDT
Nautical Twilight 4:56 AM CDT 8:46 PM CDT
Astronomical Twilight 4:22 AM CDT 9:21 PM CDT
Moon 9:53 PM CDT (5/16) 7:38 AM CDT (5/16)
Length of Visible Light 14h 44m
Length of Day
13h 50m
Waning Gibbous, 95% of the Moon is Illuminated
May 16
Waning Gibbous
May 21
Last Quarter
May 28
New
Jun 5
First Quarter
Jun 12
Full

Hourly Weather History & Observations

Time (CDT) Temp. Dew Point Humidity Pressure Visibility Wind Dir Wind Speed Gust Speed Precip Events Conditions
12:58 AM 48.9 °F 46.9 °F 93% 30.16 in 10.0 mi SSW 4.6 mph - N/A   Clear
1:58 AM 50.0 °F 46.9 °F 89% 30.13 in 10.0 mi Calm Calm - N/A   Clear
2:58 AM 48.0 °F 46.0 °F 93% 30.13 in 10.0 mi South 4.6 mph - N/A   Clear
3:58 AM 48.9 °F 46.0 °F 90% 30.14 in 10.0 mi Calm Calm - N/A   Clear
4:58 AM 46.9 °F 46.0 °F 97% 30.14 in 10.0 mi South 3.5 mph - N/A   Clear
5:58 AM 48.0 °F 46.0 °F 93% 30.14 in 10.0 mi Calm Calm - N/A   Partly Cloudy
6:58 AM 50.0 °F 46.9 °F 89% 30.16 in 10.0 mi SSE 3.5 mph - 0.00 in Rain Light Rain
7:58 AM 52.0 °F 48.9 °F 89% 30.17 in 10.0 mi SSE 3.5 mph - 0.00 in Rain Light Rain
8:58 AM 55.9 °F 50.0 °F 80% 30.19 in 10.0 mi Variable 3.5 mph - 0.00 in   Overcast
9:58 AM 60.1 °F 48.9 °F 67% 30.19 in 10.0 mi NW 8.1 mph - 0.00 in Rain Light Rain
10:58 AM 62.1 °F 48.0 °F 60% 30.20 in 10.0 mi WNW 5.8 mph - 0.00 in   Overcast
11:58 AM 66.0 °F 45.0 °F 47% 30.18 in 10.0 mi Variable 6.9 mph - N/A   Scattered Clouds
12:58 PM 70.0 °F 44.1 °F 39% 30.16 in 10.0 mi North 6.9 mph - N/A   Scattered Clouds
1:58 PM 68.0 °F 43.0 °F 40% 30.15 in 10.0 mi WSW 6.9 mph - N/A   Mostly Cloudy
2:58 PM 72.0 °F 45.0 °F 38% 30.12 in 10.0 mi NW 10.4 mph - N/A   Partly Cloudy
3:58 PM 73.0 °F 45.0 °F 37% 30.11 in 10.0 mi West 8.1 mph - N/A   Clear
4:58 PM 73.0 °F 45.0 °F 37% 30.09 in 10.0 mi NW 9.2 mph - N/A   Partly Cloudy
5:58 PM 72.0 °F 46.9 °F 41% 30.08 in 10.0 mi NNW 6.9 mph - N/A   Clear
6:58 PM 70.0 °F 48.0 °F 46% 30.09 in 10.0 mi NNW 3.5 mph - N/A   Clear
7:58 PM 63.0 °F 54.0 °F 72% 30.10 in 10.0 mi Calm Calm - N/A   Clear
8:58 PM 59.0 °F 54.0 °F 83% 30.11 in 10.0 mi Calm Calm - N/A   Clear
9:58 PM 55.9 °F 53.1 °F 90% 30.12 in 10.0 mi SSW 3.5 mph - N/A   Clear
10:58 PM 55.0 °F 53.1 °F 93% 30.12 in 10.0 mi South 3.5 mph - N/A   Clear
11:58 PM 54.0 °F 51.1 °F 90% 30.13 in 10.0 mi Calm Calm - N/A   Clear